Change the Weather History Date:

Wednesday, November 28, 2012

  Actual Average (KSBY) Record (KSBY)
Temperature  
Mean Temperature 34 °F 44 °F  
Max Temperature 44 °F 54 °F 76 °F (1990)
Min Temperature 24 °F 35 °F 16 °F (1936)
Degree Days  
Heating Degree Days 31 21  
Month to date heating degree days 462  
Since 1 July heating degree days 775  
Cooling Degree Days 0 0  
Month to date cooling degree days 0  
Year to date cooling degree days 1150  
Moisture  
Dew Point 30 °F    
Average Humidity 79    
Maximum Humidity 96    
Minimum Humidity 45    
Precipitation  
Precipitation 0.00 in 0.12 in 1.25 in (1993)
Month to date precipitation 3.18  
Year to date precipitation 41.72  
Snow  
Snow 0.00 in 0.10 in 6.00 in (1912)
Month to date snowfall 0.2  
Since 1 July snowfall 0.2  
Snow Depth -    
Sea Level Pressure  
Sea Level Pressure 30.26 in    
Wind  
Wind Speed 8 mph (NNW)    
Max Wind Speed 16 mph    
Max Gust Speed 22 mph    
Visibility 8 miles    
Events      
T = Trace of Precipitation, MM = Missing Value Source: NWS Daily Summary

Daily Weather History Graph

Daily Weather History Graph

Search for Another Location

Airport or City:

Trip Planner

Search our weather history database for the weather conditions in past years. The results will help you decide how hot, cold, wet, or windy it might be!

Date:

Astronomy

Nov. 28, 2012 Rise Set
Actual Time 6:56 AM EST 4:41 PM EST
Civil Twilight 6:26 AM EST 5:10 PM EST
Nautical Twilight 5:54 AM EST 5:42 PM EST
Astronomical Twilight 5:22 AM EST 6:14 PM EST
Moon 4:54 PM EST (11/28) 6:51 AM EST (11/28)
Length of Visible Light 10h 43m
Length of Day
9h 45m
Full, 100% of the Moon is Illuminated
Nov 28
Full
Dec 6
Last Quarter
Dec 13
New
Dec 20
First Quarter
Dec 28
Full

Hourly Weather History & Observations

Time (EST) Temp. Windchill Dew Point Humidity Pressure Visibility Wind Dir Wind Speed Gust Speed Precip Events Conditions
12:53 AM 39.0 °F 33.4 °F 37.0 °F 93% 30.19 in 8.0 mi North 8.1 mph - N/A   Overcast
1:53 AM 39.0 °F 32.8 °F 37.0 °F 93% 30.19 in 8.0 mi North 9.2 mph - N/A   Overcast
2:53 AM 39.0 °F 34.0 °F 36.0 °F 89% 30.20 in 10.0 mi NNW 6.9 mph - N/A   Overcast
3:53 AM 39.0 °F 34.0 °F 36.0 °F 89% 30.20 in 10.0 mi NNW 6.9 mph - N/A   Overcast
4:53 AM 37.9 °F 32.1 °F 35.1 °F 89% 30.22 in 7.0 mi NNW 8.1 mph - N/A   Overcast
5:36 AM 37.4 °F 32.1 °F 35.6 °F 93% 30.22 in 7.0 mi NNW 6.9 mph - N/A   Overcast
5:53 AM 37.0 °F 31.6 °F 35.1 °F 93% 30.22 in 6.0 mi NNW 6.9 mph - N/A   Overcast
6:53 AM 36.0 °F 30.3 °F 34.0 °F 93% 30.24 in 5.0 mi NW 6.9 mph - N/A   Mostly Cloudy
7:02 AM 35.6 °F 29.2 °F 33.8 °F 93% 30.25 in 4.0 mi NW 8.1 mph - N/A   Mostly Cloudy
7:30 AM 35.6 °F 29.9 °F 33.8 °F 93% 30.25 in 4.0 mi NNW 6.9 mph - N/A   Mostly Cloudy
7:53 AM 37.0 °F 31.0 °F 34.0 °F 89% 30.26 in 5.0 mi NNW 8.1 mph - N/A   Overcast
8:18 AM 37.4 °F 31.4 °F 33.8 °F 87% 30.27 in 5.0 mi NNW 8.1 mph - N/A   Scattered Clouds
8:53 AM 39.9 °F 33.9 °F 33.1 °F 77% 30.27 in 8.0 mi NNW 9.2 mph 20.7 mph N/A   Clear
9:53 AM 42.1 °F 34.2 °F 28.9 °F 60% 30.28 in 10.0 mi North 16.1 mph 21.9 mph N/A   Clear
10:53 AM 43.0 °F 36.4 °F 28.0 °F 56% 30.27 in 10.0 mi NW 12.7 mph 21.9 mph N/A   Clear
11:53 AM 43.0 °F 37.2 °F 27.0 °F 53% 30.27 in 10.0 mi NW 10.4 mph 20.7 mph N/A   Overcast
12:53 PM 44.1 °F 39.5 °F 26.1 °F 49% 30.24 in 10.0 mi NNW 8.1 mph - N/A   Partly Cloudy
1:53 PM 44.1 °F 37.1 °F 26.1 °F 49% 30.23 in 10.0 mi NNW 15.0 mph 21.9 mph N/A   Clear
2:53 PM 44.1 °F 37.4 °F 24.1 °F 45% 30.24 in 10.0 mi NW 13.8 mph - N/A   Clear
3:53 PM 43.0 °F 37.7 °F 25.0 °F 49% 30.26 in 10.0 mi NW 9.2 mph 17.3 mph N/A   Clear
4:53 PM 39.0 °F 36.8 °F 25.0 °F 57% 30.27 in 10.0 mi NW 3.5 mph - N/A   Clear
5:53 PM 32.0 °F - 27.0 °F 82% 30.29 in 10.0 mi Calm Calm - N/A   Clear
6:53 PM 28.9 °F - 26.1 °F 89% 30.31 in 10.0 mi Calm Calm - N/A   Clear
7:53 PM 28.0 °F - 26.1 °F 92% 30.33 in 6.0 mi Calm Calm - N/A   Clear
8:53 PM 27.0 °F - 25.0 °F 92% 30.35 in 9.0 mi Calm Calm - N/A   Clear
9:53 PM 27.0 °F 23.0 °F 25.0 °F 92% 30.35 in 10.0 mi WNW 3.5 mph - N/A   Clear
10:53 PM 24.1 °F 19.7 °F 23.0 °F 96% 30.37 in 8.0 mi West 3.5 mph - N/A   Clear
11:53 PM 27.0 °F 21.6 °F 24.1 °F 89% 30.36 in 10.0 mi NW 4.6 mph - N/A   Clear